Weather History for KRFD - April, 2013

Change the Weather History Date:

Sunday, April 7, 2013

  Actual Average Record
Temperature  
Mean Temperature 50 °F 46 °F  
Max Temperature 61 °F 57 °F 81 °F (1921)
Min Temperature 39 °F 35 °F 5 °F (1982)
Degree Days  
Heating Degree Days 15 19  
Month to date heating degree days 164 141  
Since 1 July heating degree days 5993 6005  
Cooling Degree Days 0 0  
Month to date cooling degree days 0 0  
Year to date cooling degree days 0 0  
Moisture  
Dew Point 38 °F    
Average Humidity 64    
Maximum Humidity 86    
Minimum Humidity 42    
Precipitation  
Precipitation 0.00 in 0.12 in 1.65 in (1954)
Month to date precipitation 0.13 0.75  
Year to date precipitation 8.49 5.85  
Snow  
Snow 0.00 in 0.00 in 2.50 in (1972)
Month to date snowfall 0.0 0.4  
Since 1 July snowfall 40.5 36.2  
Snow Depth 0.00 in    
Sea Level Pressure  
Sea Level Pressure 29.87 in    
Wind  
Wind Speed 8 mph (WNW)    
Max Wind Speed 22 mph    
Max Gust Speed 30 mph    
Visibility 10 miles    
Events      
T = Trace of Precipitation, MM = Missing Value Source: NWS Daily Summary

Daily Weather History Graph

Daily Weather History Graph

Search for Another Location

Airport or City:

Trip Planner

Search our weather history database for the weather conditions in past years. The results will help you decide how hot, cold, wet, or windy it might be!

Date:

Astronomy

Apr. 07, 2013 Rise Set
Actual Time 6:28 AM CDT 7:29 PM CDT
Civil Twilight 5:59 AM CDT 7:57 PM CDT
Nautical Twilight 5:25 AM CDT 8:31 PM CDT
Astronomical Twilight 4:50 AM CDT 9:07 PM CDT
Moon 4:48 AM CDT (4/7) 4:58 PM CDT (4/7)
Length of Visible Light 13h 58m
Length of Day
13h 00m
Waning Crescent, 8% of the Moon is Illuminated
Apr 7
Waning Crescent
Apr 10
New
Apr 18
First Quarter
Apr 25
Full
May 2
Last Quarter

Hourly Weather History & Observations

Time (CDT) Temp. Windchill Dew Point Humidity Pressure Visibility Wind Dir Wind Speed Gust Speed Precip Events Conditions
12:40 AM 50.0 °F - 46.4 °F 87% 29.66 in 9.0 mi WNW 19.6 mph 25.3 mph N/A   Overcast
12:54 AM 50.0 °F - 46.0 °F 86% 29.67 in 10.0 mi WNW 16.1 mph 23.0 mph N/A   Overcast
1:22 AM 50.0 °F - 44.6 °F 82% 29.69 in 10.0 mi WNW 15.0 mph 21.9 mph N/A   Overcast
1:54 AM 48.0 °F - 43.0 °F 83% 29.70 in 10.0 mi West 15.0 mph 24.2 mph N/A   Overcast
2:54 AM 46.9 °F - 42.1 °F 83% 29.72 in 10.0 mi West 12.7 mph 19.6 mph N/A   Overcast
3:54 AM 46.0 °F 39.6 °F 39.9 °F 79% 29.75 in 10.0 mi WNW 15.0 mph 23.0 mph N/A   Overcast
4:54 AM 42.1 °F 35.2 °F 36.0 °F 79% 29.79 in 10.0 mi NW 12.7 mph - N/A   Overcast
5:54 AM 42.1 °F 35.7 °F 36.0 °F 79% 29.83 in 10.0 mi NW 11.5 mph - N/A   Overcast
6:54 AM 41.0 °F 34.3 °F 35.1 °F 79% 29.87 in 10.0 mi NW 11.5 mph - N/A   Overcast
7:54 AM 41.0 °F 34.3 °F 35.1 °F 79% 29.91 in 10.0 mi NW 11.5 mph - N/A   Overcast
8:54 AM 44.1 °F 39.5 °F 36.0 °F 73% 29.92 in 10.0 mi WNW 8.1 mph - N/A   Mostly Cloudy
9:32 AM 46.4 °F 41.9 °F 35.6 °F 66% 29.92 in 10.0 mi WNW 9.2 mph - N/A   Scattered Clouds
9:54 AM 48.0 °F - 36.0 °F 63% 29.94 in 10.0 mi NNW 6.9 mph - N/A   Scattered Clouds
10:54 AM 50.0 °F - 35.1 °F 57% 29.96 in 10.0 mi Variable 4.6 mph - N/A   Scattered Clouds
11:54 AM 50.0 °F - 36.0 °F 59% 29.97 in 10.0 mi Variable 4.6 mph - N/A   Partly Cloudy
12:54 PM 55.0 °F - 37.0 °F 51% 29.96 in 10.0 mi WNW 8.1 mph - N/A   Scattered Clouds
1:54 PM 55.9 °F - 37.0 °F 49% 29.96 in 10.0 mi WSW 8.1 mph - N/A   Mostly Cloudy
2:54 PM 59.0 °F - 37.0 °F 44% 29.95 in 10.0 mi WNW 4.6 mph - N/A   Mostly Cloudy
3:54 PM 60.1 °F - 37.9 °F 44% 29.94 in 10.0 mi SSE 4.6 mph - N/A   Mostly Cloudy
4:54 PM 61.0 °F - 37.9 °F 42% 29.93 in 10.0 mi Calm Calm - N/A   Overcast
5:54 PM 60.1 °F - 37.9 °F 44% 29.93 in 10.0 mi Variable 3.5 mph - N/A   Mostly Cloudy
6:54 PM 57.9 °F - 39.0 °F 49% 29.94 in 10.0 mi SE 4.6 mph - N/A   Partly Cloudy
7:54 PM 55.0 °F - 39.0 °F 55% 29.93 in 10.0 mi SE 4.6 mph - N/A   Partly Cloudy
8:54 PM 46.9 °F - 37.0 °F 68% 29.95 in 10.0 mi East 12.7 mph - N/A   Partly Cloudy
9:54 PM 43.0 °F 38.2 °F 35.1 °F 74% 29.96 in 10.0 mi East 8.1 mph - N/A   Partly Cloudy
10:54 PM 39.9 °F 34.5 °F 33.1 °F 77% 29.92 in 10.0 mi East 8.1 mph - N/A   Partly Cloudy
11:54 PM 39.0 °F 32.8 °F 33.1 °F 79% 29.91 in 10.0 mi East 9.2 mph - N/A   Scattered Clouds